Theta_e
279 279 279 279 278 278 278 278 278 278 278 278 278 278 278 277 277 276 276 276 276 276 277 277 277 279 280 281 282 283 283 282 280 282 284 286 287 287 288 287 286 285 287
279 279 279 279 278 278 278 278 278 277 277 277 277 277 277 277 277 276 276 276 275 275 276 276 276 278 277 279 280 279 280 282 280 278 281 282 283 286 287 286 287 286 285
279 278 278 278 278 277 277 278 277 277 276 276 276 276 276 276 276 276 276 276 276 276 276 276 276 276 276 277 277 278 279 280 279 279 278 281 282 283 284 285 285 286 286
279 278 278 278 277 277 277 277 276 276 275 274 274 274 274 274 274 275 275 275 275 275 276 276 276 276 276 276 276 277 278 278 278 278 278 278 279 281 282 282 282 284 284
277 277 277 278 277 277 276 276 275 274 273 273 272 272 272 272 273 274 274 273 273 273 274 275 275 276 278 278 277 277 277 277 276 276 276 277 278 278 279 281 281 282 284
276 277 278 277 276 276 275 273 272 272 271 271 271 270 270 271 274 275 275 273 273 272 271 272 272 273 274 276 278 279 279 276 275 275 276 276 277 278 280 280 280 280 279
277 276 275 274 273 273 271 271 270 269 269 269 268 268 268 268 272 274 274 272 271 271 271 271 271 272 271 271 273 275 275 276 277 275 273 274 275 277 278 278 279 280 280
274 271 272 271 269 270 269 268 267 267 267 266 266 266 266 267 271 272 273 271 270 270 270 270 270 270 270 271 271 271 272 273 273 274 273 273 274 275 276 276 276 277 279
272 271 269 268 266 266 263 266 266 265 265 264 266 265 264 264 269 271 271 269 269 269 269 270 270 269 272 274 272 270 271 272 276 277 278 279 280 280 280 277 275 275 275
271 271 269 267 262 262 264 263 263 262 264 264 264 264 263 262 267 270 271 269 267 268 269 270 272 271 274 275 273 271 270 271 272 272 273 274 276 275 277 276 275 272 272
268 267 267 265 261 261 260 261 259 259 262 260 261 261 262 263 263 269 271 270 269 268 269 270 271 274 275 276 276 273 272 274 274 273 273 273 273 274 274 274 275 275 273
266 266 263 261 261 262 254 256 256 255 256 257 258 260 262 263 266 269 272 274 274 270 270 271 271 275 276 277 277 278 278 278 276 273 271 270 271 271 272 274 275 276 277
261 260 260 261 261 261 255 259 258 255 255 258 260 260 261 264 265 270 272 273 274 272 272 274 276 277 277 276 277 277 276 273 271 270 270 270 271 272 273 272 273 273 273
256 259 261 261 261 260 261 260 256 255 257 259 259 260 262 266 267 267 268 271 273 272 273 273 273 273 273 272 270 272 272 272 271 270 270 272 273 272 271 271 270 270 270
258 261 261 261 259 259 260 260 260 260 261 260 264 266 265 265 267 272 273 272 272 273 271 267 264 263 264 264 265 266 267 268 268 269 269 269 269 269 269 270 270 270 268
259 261 260 260 259 259 259 259 264 267 269 271 271 270 268 271 273 273 274 274 274 271 264 259 260 261 261 262 262 263 265 266 267 268 269 268 268 269 269 270 272 271 270
258 260 259 259 257 256 256 256 255 259 265 267 268 269 269 271 271 273 272 272 268 266 255 257 258 259 260 261 262 262 263 265 267 268 269 269 269 269 269 269 270 271 272
257 258 256 255 254 254 254 255 254 254 254 256 261 264 267 268 270 271 270 265 257 258 252 257 258 259 259 260 260 261 263 264 266 268 269 269 269 269 269 269 270 272 274
254 255 253 252 252 252 253 252 252 251 251 253 255 259 260 265 267 266 265 251 256 256 257 258 259 259 259 260 261 262 263 264 265 267 269 269 269 269 269 270 271 273 275
251 253 253 250 251 250 250 251 251 250 250 250 253 254 255 256 251 252 252 252 254 256 257 258 259 260 260 260 261 262 263 263 264 265 266 268 270 271 271 273 274 274 275
251 251 252 249 249 248 248 248 250 249 250 251 253 253 264 255 251 250 252 253 253 255 256 258 259 260 261 261 261 262 263 263 264 265 265 267 268 268 269 270 270 270 270
252 252 249 249 251 249 248 249 249 249 250 251 252 249 261 248 248 248 251 252 252 254 255 256 258 259 261 261 262 262 264 264 264 265 265 266 267 268 268 268 268 269 269
252 252 253 252 251 251 248 248 248 249 251 250 249 250 247 248 247 248 250 251 252 253 254 254 256 258 260 261 262 264 265 266 265 265 264 265 266 266 267 267 267 267 267
251 250 249 248 245 246 248 249 249 251 252 251 248 247 247 247 247 248 250 250 251 252 253 253 255 256 258 259 261 263 266 269 266 265 265 265 265 265 266 266 266 266 266
252 251 247 248 247 250 250 250 252 252 251 249 250 246 245 247 248 248 249 249 251 252 252 253 254 254 256 257 259 261 265 270 266 265 265 264 264 264 264 264 264 264 264
253 252 253 253 251 250 251 251 252 253 251 250 249 248 247 248 249 249 249 250 251 251 251 253 254 252 254 257 259 263 268 271 268 265 264 264 263 263 263 263 263 263 263
Wind_Speed
6 5 6 5 5 5 5 4 4 3 4 4 4 4 4 5 5 5 5 6 6 7 6 7 9 8 7 6 6 6 7 5 11 11 8 9 9 10 9 7 6 8 8
5 5 5 4 4 5 5 5 5 5 5 5 7 7 8 8 7 7 8 7 7 9 10 9 10 7 8 8 6 9 8 9 10 17 11 10 11 9 10 11 9 7 7
6 5 4 3 3 3 4 4 5 5 5 4 5 7 8 9 10 9 9 10 10 10 11 11 12 10 10 8 8 10 9 9 10 11 13 9 11 9 10 9 8 10 8
5 4 4 2 2 2 3 4 4 5 5 6 6 7 8 9 10 10 11 12 13 13 14 14 14 13 13 12 11 12 11 10 11 11 12 11 9 9 7 9 12 7 9
5 5 4 1 3 4 5 5 5 5 5 6 8 7 8 9 8 12 13 14 14 15 15 14 14 14 23 22 13 14 14 12 11 11 13 12 10 8 10 8 11 9 11
6 6 4 3 2 2 2 2 3 3 4 5 6 7 8 8 19 21 18 14 15 15 15 15 14 18 18 27 28 30 25 17 16 12 12 14 16 12 10 10 12 11 14
6 5 5 4 3 3 1 1 2 3 4 5 6 7 9 10 18 21 23 13 14 14 15 14 14 12 16 15 21 26 25 27 28 20 19 17 18 14 12 13 13 12 14
6 5 5 5 4 2 1 1 2 3 5 6 7 8 9 9 20 22 24 14 13 14 14 14 15 15 15 17 17 17 16 15 15 13 16 19 18 16 16 16 18 21 19
6 6 5 4 3 0 2 3 3 4 6 6 7 7 9 10 20 22 20 13 12 14 13 14 15 16 21 27 19 17 18 15 17 26 29 31 32 32 28 15 14 14 17
6 5 4 4 3 2 3 3 1 3 7 7 8 8 10 12 19 22 20 10 11 11 13 14 21 19 27 27 18 15 16 15 14 15 15 20 25 22 30 20 13 15 16
5 5 4 3 2 1 1 1 2 4 7 6 8 8 10 11 13 22 23 13 11 11 10 10 10 26 29 29 29 16 18 19 20 18 15 13 14 14 12 12 15 15 16
5 4 3 1 1 1 1 2 3 3 5 5 7 8 7 9 15 19 24 25 23 13 13 12 13 28 31 32 28 31 34 31 12 9 10 11 13 13 12 13 16 16 16
5 3 2 1 1 2 1 4 3 2 3 5 6 8 9 8 8 20 25 27 27 18 12 20 32 32 32 24 26 30 27 12 11 12 14 15 13 14 16 15 15 18 20
4 2 1 2 3 2 3 3 2 3 4 6 7 8 8 8 8 10 11 11 16 17 20 12 17 23 25 21 15 15 10 10 11 13 14 13 12 12 11 11 12 13 14
3 2 3 2 3 3 4 4 5 6 7 7 7 7 8 8 9 21 20 13 12 15 18 10 9 9 9 10 10 10 10 10 11 11 13 13 12 12 13 11 12 13 15
3 3 3 2 2 3 4 5 11 15 17 17 18 11 6 17 22 24 25 26 26 26 8 7 9 9 10 11 11 12 11 12 11 12 12 11 12 12 12 12 12 11 13
5 4 3 4 3 3 3 4 7 6 13 10 10 14 17 17 21 22 23 24 20 15 4 7 8 9 10 11 11 11 12 12 14 13 11 10 10 11 13 12 13 13 16
5 6 3 3 3 3 4 5 4 5 7 6 7 13 14 17 19 20 20 16 9 7 3 7 9 9 10 10 11 11 12 12 12 12 10 10 10 11 12 12 12 13 13
4 4 4 3 4 5 4 4 4 4 4 6 8 6 7 16 16 15 15 1 7 8 8 8 8 9 10 10 11 11 11 12 12 11 11 10 10 10 12 12 13 17 16
4 7 5 3 4 3 3 3 3 4 4 4 5 6 6 4 3 4 3 4 5 6 8 9 9 9 10 10 11 11 11 11 11 10 11 11 10 9 10 11 10 10 9
3 3 5 3 4 4 3 4 4 4 4 4 5 4 16 2 4 3 5 6 6 7 8 9 10 10 10 10 11 11 11 11 11 11 11 11 10 10 9 8 7 5 1
4 4 3 4 4 4 4 4 4 4 4 5 5 4 13 2 5 4 5 6 6 7 7 8 9 9 9 10 12 12 12 11 11 11 11 11 10 9 8 7 6 5 5
4 4 5 4 4 5 4 4 4 4 5 4 4 5 3 4 5 4 6 6 6 7 7 7 8 9 9 10 10 11 13 10 10 10 10 10 9 8 7 6 6 5 5
3 4 4 4 2 3 4 4 4 6 5 4 3 4 4 4 5 5 6 6 6 7 7 7 7 10 10 11 11 11 12 10 8 9 11 8 8 9 6 6 7 8 7
3 4 4 4 4 4 4 4 5 4 4 4 4 3 3 5 5 5 5 4 6 7 8 8 7 9 11 16 15 17 19 14 10 12 7 8 9 10 8 7 7 7 9
4 4 4 4 4 4 4 5 5 4 5 4 4 4 4 6 5 5 5 5 6 7 9 7 9 11 14 11 13 18 18 16 11 14 8 7 8 7 6 8 11 7 8
Wind_Direction
134 127 112 96 77 72 70 55 38 33 18 14 360 349 345 334 328 318 304 305 312 301 298 296 295 290 288 287 290 279 270 245 263 281 278 286 282 273 271 257 251 254 266
160 143 131 114 88 61 48 37 25 19 17 2 357 350 347 341 334 330 322 313 302 302 299 290 284 285 281 283 281 277 271 274 274 281 281 287 276 276 274 271 268 252 245
171 159 144 115 84 57 39 27 25 11 360 351 354 347 338 333 329 324 313 311 306 299 298 294 295 295 290 284 276 279 279 277 275 278 282 279 284 283 276 268 264 257 250
186 177 171 155 85 50 32 25 23 9 353 354 349 338 333 329 324 319 322 317 311 305 302 299 299 297 294 295 289 285 283 280 278 277 281 282 277 283 270 276 275 260 262
187 189 205 148 56 41 30 23 357 355 356 343 335 334 332 328 324 324 317 306 302 300 299 299 296 296 298 293 291 288 283 278 273 275 279 281 275 275 270 278 270 276 269
192 195 165 120 75 70 62 337 327 340 336 329 327 322 321 319 318 316 311 304 304 302 300 301 300 295 292 294 294 292 287 285 279 276 276 274 276 275 275 272 275 279 280
181 163 148 125 152 194 242 277 331 321 323 324 319 319 313 309 312 312 310 303 300 297 296 299 299 297 300 293 292 291 291 289 283 284 282 278 287 287 295 288 283 273 268
156 159 152 157 186 209 216 1 321 337 332 322 314 305 301 303 311 312 309 303 300 294 289 289 290 291 286 287 283 279 277 274 272 270 271 278 277 281 271 267 267 270 274
171 170 165 159 166 18 14 352 338 329 322 301 302 306 299 299 309 309 311 301 296 290 286 283 278 279 284 288 284 279 275 272 271 275 277 279 281 283 282 278 265 274 273
173 161 149 140 112 34 355 335 310 305 302 307 306 305 297 294 300 306 309 296 291 289 282 279 277 278 280 284 282 280 279 278 274 270 265 267 270 268 269 267 277 271 270
138 141 136 106 105 275 267 308 282 288 301 301 298 297 289 282 286 301 304 301 292 287 283 284 275 281 288 288 284 275 269 272 266 266 265 263 262 265 264 255 252 256 263
144 147 143 123 319 275 164 257 271 272 287 290 293 292 281 281 285 298 303 304 304 300 290 285 279 280 279 278 277 270 270 271 278 286 277 268 265 263 260 257 255 257 261
138 152 166 355 282 301 288 299 304 258 271 287 291 293 296 294 284 293 302 302 303 300 290 287 297 301 303 303 296 292 289 278 273 269 266 266 265 267 268 267 266 265 269
153 202 225 274 304 291 294 271 233 253 270 277 279 281 285 300 306 300 288 292 301 302 292 297 318 319 311 305 310 302 291 284 279 275 275 276 277 272 267 261 266 266 266
171 218 246 251 255 283 269 255 256 247 246 255 263 287 303 308 304 308 320 315 314 322 332 327 326 319 315 312 306 301 299 295 284 277 273 273 270 268 267 264 263 264 258
183 216 223 240 246 266 269 283 284 288 285 291 296 297 303 308 313 320 324 328 341 334 348 328 318 316 313 311 309 306 299 292 283 280 279 262 264 265 269 268 266 261 261
207 215 219 241 229 245 264 270 293 303 302 296 300 316 315 316 325 323 334 336 345 345 328 314 311 312 310 309 306 305 302 302 300 287 273 269 263 265 270 268 270 271 272
210 228 214 215 227 230 242 252 254 279 300 305 304 310 318 327 325 336 339 350 330 332 288 310 309 310 308 307 306 305 305 303 305 307 287 272 266 264 268 267 270 274 271
210 229 222 224 224 230 235 241 251 255 258 275 306 308 308 323 328 343 352 302 313 317 319 316 310 308 307 307 305 304 305 306 309 311 314 290 275 267 266 265 269 273 279
227 245 227 220 234 235 236 243 255 254 260 255 276 291 307 309 337 321 317 293 296 303 313 314 315 312 310 308 308 309 312 315 316 317 316 313 309 303 289 280 274 272 280
223 229 232 237 236 230 228 237 245 248 252 252 265 270 297 32 310 286 307 304 304 314 312 312 313 312 312 312 311 312 313 316 316 317 317 315 315 313 311 307 309 310 5
225 238 229 233 240 235 233 231 236 239 247 259 275 280 309 334 290 286 294 291 296 291 294 301 302 307 312 315 316 315 317 320 321 322 320 319 320 323 325 331 340 1 23
220 229 238 242 244 250 244 236 239 237 252 253 261 281 281 282 277 278 284 288 294 296 297 298 299 306 312 316 314 312 322 319 323 319 321 324 328 334 339 348 357 6 27
231 231 242 245 240 239 241 248 242 247 256 263 263 265 263 272 276 281 281 285 293 293 293 292 293 297 311 316 315 316 320 330 332 324 327 333 343 350 356 6 18 26 35
225 243 239 243 238 243 249 245 248 248 254 257 270 261 262 272 273 270 271 279 289 296 301 299 296 301 308 314 310 317 319 342 354 347 340 346 357 8 12 19 22 32 41
227 229 242 242 242 236 240 253 258 262 265 270 265 265 274 283 282 278 284 290 296 304 298 296 299 301 308 310 311 319 325 344 14 359 354 359 9 15 21 28 29 34 37